When you browse on this site, cookies collect data to enhance your experience and personalize the content and advertising you see.
Visit our Privacy Policy to learn more. By continuing to use the site, you agree to this use of cookies and data.
  • In Deutschland
  • Länderverzeichnis
  • Für 7 Tage
  • Wassertemperatur
  • Wetterkarte
  • Widgets
  • user-avatar
    Anmelden

    Stündliche Wetter Ordino

    Heute, 18 Oktober, Freitag

    Zeit Temperatur Niederschläge Wind Luftdruck Luftfeuchtigkeit
    00:00 +7°C° 0 mm 1 m/S 631 mmHg 85%
    01:00 +7°C° 0 mm 1 m/S 631 mmHg 83%
    02:00 +6°C° 0 mm 2 m/S 631 mmHg 81%
    03:00 +6°C° 0 mm 2 m/S 630 mmHg 80%
    04:00 +6°C° 0 mm 2 m/S 631 mmHg 82%
    05:00 +7°C° 0 mm 2 m/S 631 mmHg 84%
    06:00 +8°C° 0 mm 1 m/S 631 mmHg 87%
    07:00 +10°C° 0 mm 1 m/S 632 mmHg 81%
    08:00 +11°C° 0 mm 1 m/S 633 mmHg 75%
    09:00 +13°C° 0 mm 1 m/S 634 mmHg 70%
    10:00 +14°C° 0 mm 1 m/S 634 mmHg 67%
    11:00 +14°C° 0 mm 2 m/S 634 mmHg 65%
    12:00 +15°C° 0 mm 2 m/S 634 mmHg 62%
    13:00 +14°C° 0 mm 2 m/S 634 mmHg 65%
    14:00 +14°C° 0 mm 2 m/S 633 mmHg 67%
    15:00 +14°C° 0 mm 2 m/S 633 mmHg 69%
    16:00 +12°C° 0 mm 2 m/S 632 mmHg 77%
    17:00 +10°C° 0 mm 2 m/S 631 mmHg 84%
    18:00 +9°C° 0 mm 2 m/S 630 mmHg 91%
    19:00 +9°C° 0 mm 2 m/S 630 mmHg 90%
    20:00 +9°C° 0 mm 2 m/S 630 mmHg 88%
    21:00 +9°C° 0 mm 2 m/S 630 mmHg 87%
    22:00 +9°C° 0.1 mm 2 m/S 630 mmHg 88%
    23:00 +9°C° 0.1 mm 2 m/S 630 mmHg 90%

    Morgen, 19 Oktober, Samstag

    Zeit Temperatur Niederschläge Wind Luftdruck Luftfeuchtigkeit
    00:00 +9°C° 0.1 mm 2 m/S 629 mmHg 91%
    01:00 +8°C° 0.1 mm 2 m/S 629 mmHg 92%
    02:00 +8°C° 0.1 mm 2 m/S 629 mmHg 92%
    03:00 +8°C° 0.1 mm 2 m/S 628 mmHg 93%
    04:00 +8°C° 0 mm 2 m/S 628 mmHg 93%
    05:00 +7°C° 0 mm 2 m/S 628 mmHg 93%
    06:00 +7°C° 0 mm 2 m/S 627 mmHg 94%
    07:00 +8°C° 0 mm 2 m/S 628 mmHg 88%
    08:00 +9°C° 0 mm 2 m/S 629 mmHg 81%
    09:00 +11°C° 0 mm 3 m/S 629 mmHg 75%
    10:00 +11°C° 0 mm 3 m/S 629 mmHg 71%
    11:00 +12°C° 0 mm 3 m/S 629 mmHg 67%
    12:00 +13°C° 0 mm 3 m/S 629 mmHg 62%
    13:00 +12°C° 0.1 mm 3 m/S 629 mmHg 66%
    14:00 +12°C° 0.1 mm 3 m/S 628 mmHg 69%
    15:00 +12°C° 0.1 mm 3 m/S 628 mmHg 72%
    16:00 +11°C° 0.2 mm 3 m/S 627 mmHg 79%
    17:00 +10°C° 0.2 mm 3 m/S 627 mmHg 86%
    18:00 +9°C° 0.2 mm 3 m/S 626 mmHg 92%
    19:00 +9°C° 0.3 mm 3 m/S 626 mmHg 92%
    20:00 +8°C° 0.3 mm 4 m/S 626 mmHg 92%
    21:00 +10°C° 0.3 mm 4 m/S 626 mmHg 92%
    22:00 +8°C° 0.1 mm 4 m/S 626 mmHg 92%
    23:00 +7°C° 0.1 mm 4 m/S 625 mmHg 91%

    übermorgen, 20 Oktober, Sonntag

    Zeit Temperatur Niederschläge Wind Luftdruck Luftfeuchtigkeit
    00:00 +8°C° 0.1 mm 3 m/S 625 mmHg 90%
    01:00 +8°C° 0 mm 3 m/S 625 mmHg 90%
    02:00 +7°C° 0 mm 4 m/S 625 mmHg 89%
    03:00 +7°C° 0 mm 4 m/S 624 mmHg 89%
    04:00 +7°C° 0.8 mm 4 m/S 624 mmHg 90%
    05:00 +7°C° 0.8 mm 4 m/S 624 mmHg 91%
    06:00 +7°C° 0.8 mm 4 m/S 624 mmHg 93%
    07:00 +7°C° 1 mm 4 m/S 625 mmHg 89%
    08:00 +7°C° 1 mm 4 m/S 625 mmHg 86%
    09:00 +7°C° 1 mm 4 m/S 626 mmHg 83%
    10:00 +8°C° 0.1 mm 4 m/S 626 mmHg 73%
    11:00 +10°C° 0.1 mm 4 m/S 627 mmHg 63%
    12:00 +11°C° 0.1 mm 4 m/S 628 mmHg 53%
    13:00 +11°C° 0 mm 3 m/S 628 mmHg 51%
    14:00 +11°C° 0 mm 3 m/S 628 mmHg 49%
    15:00 +10°C° 0 mm 2 m/S 629 mmHg 47%
    16:00 +8°C° 0 mm 2 m/S 629 mmHg 60%
    17:00 +7°C° 0 mm 1 m/S 629 mmHg 73%
    18:00 +5°C° 0 mm 1 m/S 629 mmHg 86%
    19:00 +5°C° 0 mm 1 m/S 629 mmHg 87%
    20:00 +4°C° 0 mm 1 m/S 629 mmHg 88%
    21:00 +3°C° 0 mm 0 m/S 630 mmHg 88%
    22:00 +4°C° 0 mm 1 m/S 630 mmHg 88%
    23:00 +3°C° 0 mm 1 m/S 630 mmHg 87%

    21 Oktober, Montag

    Zeit Temperatur Niederschläge Wind Luftdruck Luftfeuchtigkeit
    00:00 +3°C° 0 mm 1 m/S 630 mmHg 86%
    01:00 +3°C° 0 mm 1 m/S 630 mmHg 84%
    02:00 +3°C° 0 mm 1 m/S 630 mmHg 81%
    03:00 +3°C° 0 mm 1 m/S 631 mmHg 79%
    04:00 +3°C° 0 mm 1 m/S 631 mmHg 78%
    05:00 +3°C° 0 mm 1 m/S 631 mmHg 77%
    06:00 +3°C° 0 mm 0 m/S 631 mmHg 76%
    07:00 +4°C° 0 mm 0 m/S 632 mmHg 70%
    08:00 +7°C° 0 mm 1 m/S 632 mmHg 64%
    09:00 +9°C° 0 mm 1 m/S 633 mmHg 58%
    10:00 +9°C° 0 mm 1 m/S 633 mmHg 55%
    11:00 +10°C° 0 mm 1 m/S 634 mmHg 51%
    12:00 +10°C° 0 mm 2 m/S 634 mmHg 47%
    13:00 +10°C° 0 mm 1 m/S 633 mmHg 53%
    14:00 +9°C° 0 mm 1 m/S 633 mmHg 59%
    15:00 +9°C° 0 mm 1 m/S 632 mmHg 64%
    16:00 +8°C° 0.3 mm 1 m/S 632 mmHg 73%
    17:00 +7°C° 0.3 mm 1 m/S 632 mmHg 81%
    18:00 +6°C° 0.3 mm 1 m/S 632 mmHg 90%
    19:00 +6°C° 0.2 mm 1 m/S 632 mmHg 91%
    20:00 +6°C° 0.2 mm 1 m/S 632 mmHg 92%
    21:00 +6°C° 0.2 mm 1 m/S 632 mmHg 93%
    22:00 +6°C° 0.2 mm 1 m/S 632 mmHg 94%
    23:00 +6°C° 0.2 mm 1 m/S 632 mmHg 94%

    22 Oktober, Dienstag

    Zeit Temperatur Niederschläge Wind Luftdruck Luftfeuchtigkeit
    00:00 +6°C° 0.2 mm 1 m/S 632 mmHg 94%
    01:00 +6°C° 0.5 mm 1 m/S 632 mmHg 95%
    02:00 +6°C° 0.5 mm 1 m/S 631 mmHg 95%
    03:00 +6°C° 0.5 mm 1 m/S 631 mmHg 96%
    04:00 +6°C° 1.7 mm 1 m/S 631 mmHg 96%
    05:00 +6°C° 1.7 mm 1 m/S 630 mmHg 96%
    06:00 +5°C° 1.7 mm 2 m/S 630 mmHg 96%
    07:00 +6°C° 1.3 mm 2 m/S 630 mmHg 96%
    08:00 +6°C° 1.3 mm 2 m/S 630 mmHg 96%
    09:00 +6°C° 1.3 mm 2 m/S 629 mmHg 95%
    10:00 +6°C° 2.1 mm 2 m/S 630 mmHg 96%
    11:00 +6°C° 2.1 mm 2 m/S 630 mmHg 97%
    12:00 +7°C° 2.1 mm 1 m/S 630 mmHg 98%
    13:00 +8°C° 0.8 mm 1 m/S 630 mmHg 97%
    14:00 +8°C° 0.8 mm 1 m/S 630 mmHg 96%
    15:00 +9°C° 0.8 mm 1 m/S 630 mmHg 96%
    16:00 +8°C° 0 mm 1 m/S 630 mmHg 96%
    17:00 +8°C° 0 mm 1 m/S 629 mmHg 96%
    18:00 +8°C° 0 mm 1 m/S 629 mmHg 95%
    19:00 +8°C° 0.5 mm 1 m/S 630 mmHg 95%
    20:00 +9°C° 0.5 mm 1 m/S 630 mmHg 95%
    21:00 +9°C° 0.5 mm 1 m/S 630 mmHg 95%
    22:00 +8°C° 1.4 mm 2 m/S 629 mmHg 95%
    23:00 +8°C° 1.4 mm 2 m/S 629 mmHg 95%

    23 Oktober, Mittwoch

    Zeit Temperatur Niederschläge Wind Luftdruck Luftfeuchtigkeit
    00:00 +8°C° 1.4 mm 2 m/S 629 mmHg 95%
    01:00 +8°C° 1.6 mm 2 m/S 628 mmHg 95%
    02:00 +8°C° 1.6 mm 2 m/S 628 mmHg 95%
    03:00 +8°C° 1.6 mm 2 m/S 627 mmHg 95%
    04:00 +8°C° 3.1 mm 2 m/S 627 mmHg 95%
    05:00 +9°C° 3.1 mm 2 m/S 627 mmHg 96%
    06:00 +9°C° 3.1 mm 2 m/S 627 mmHg 96%
    07:00 +9°C° 1.7 mm 2 m/S 626 mmHg 96%
    08:00 +10°C° 1.7 mm 2 m/S 626 mmHg 95%
    09:00 +10°C° 1.7 mm 3 m/S 626 mmHg 94%
    10:00 +10°C° 2.4 mm 3 m/S 625 mmHg 95%
    11:00 +10°C° 2.4 mm 3 m/S 625 mmHg 95%
    12:00 +10°C° 2.4 mm 3 m/S 625 mmHg 96%
    13:00 +9°C° 10 mm 2 m/S 624 mmHg 96%
    14:00 +9°C° 10 mm 2 m/S 624 mmHg 97%
    15:00 +9°C° 10 mm 1 m/S 624 mmHg 98%
    16:00 +8°C° 1.7 mm 1 m/S 624 mmHg 96%
    17:00 +8°C° 1.7 mm 1 m/S 624 mmHg 95%
    18:00 +6°C° 1.7 mm 2 m/S 624 mmHg 93%
    19:00 +5°C° 0 mm 2 m/S 624 mmHg 93%
    20:00 +5°C° 0 mm 2 m/S 624 mmHg 93%
    21:00 +5°C° 0 mm 2 m/S 625 mmHg 92%
    22:00 +4°C° 0 mm 2 m/S 625 mmHg 92%
    23:00 +4°C° 0 mm 2 m/S 625 mmHg 91%
    Mehr zeigen